Regional Weather Roundup
Issued by NWS

Home | Current Version | Previous Version | Graphics & Text | Print | Product List | Glossary On
Versions: 1 2 3 4 5 6 7 8 9 10 11 12 13 14 15 16 17 18 19 20 21 22 23 24 25 26 27 28 29 30 31 32 33 34 35 36 37 38 39 40 41 42 43 44 45 46 47 48 49 50
000
ASUS43 KFSD 230602
RWRSD

WEATHER ROUNDUP FOR SOUTH DAKOTA
NATIONAL WEATHER SERVICE SIOUX FALLS SD
100 AM CDT WED JUL 23 2014

NOTE: "FAIR" INDICATES FEW OR NO CLOUDS BELOW 12,000 FEET WITH NO
SIGNIFICANT WEATHER AND/OR OBSTRUCTIONS TO VISIBILITY.


SDZ001>005-009-010-012>017-230700-
NORTHWEST AND NORTH CENTRAL SOUTH DAKOTA

CITY           SKY/WX    TMP DP  RH WIND       PRES   REMARKS
BUFFALO          N/A     63  59  87 W6        30.25R
FAITH            N/A     66  61  84 SE10      30.24R
MOBRIDGE       PTCLDY    66  61  84 E7        30.21R
$$

SDZ012>016-024>037-041>051-057-063-072>074-230700-
SOUTHWEST AND SOUTH CENTRAL SOUTH DAKOTA

CITY           SKY/WX    TMP DP  RH WIND       PRES   REMARKS
RAPID CTY ARPT MOCLDY    67  63  87 SW7       30.27F
PIERRE         CLOUDY    69  59  70 E7        30.21R
CUSTER         PTCLDY    60  57  89 E9        30.41S
ELLSWORTH AFB  MOCLDY    67  64  89 S12       30.25F
PHILIP         MOCLDY    72  58  61 SE8       30.23F
PINE RIDGE     CLOUDY    69  64  84 N8        30.31R THUNDER
WINNER         FAIR      71  59  65 SE9       30.26F
$$

SDZ004>011-016>023-039-040-230700-
NORTHEAST SOUTH DAKOTA

CITY           SKY/WX    TMP DP  RH WIND       PRES   REMARKS
ABERDEEN       MOCLDY    63  60  90 SE3       30.26R
WATERTOWN      PTCLDY    61  57  87 CALM      30.26F
SISSETON         N/A     60  58  92 N3        30.24F
$$

SDZ017-020-022-023-036>040-048>070-230700-
SOUTHEAST SOUTH DAKOTA

CITY           SKY/WX    TMP DP  RH WIND       PRES   REMARKS
SIOUX FALLS    PTCLDY    63  57  81 N6        30.26R
HURON          MOCLDY    66  59  78 SE6       30.23F
CHAMBERLAIN    CLOUDY    67  60  78 S8        30.21F
MITCHELL       MOCLDY    66  62  87 E9        30.22F
YANKTON        PTCLDY    64  59  82 N6        30.25R
$$

ABBREVIATIONS USED IN REMARKS
   TC - TEMPERATURE IN CELSIUS
  WCI - WIND CHILL INDEX
   HX - HEAT INDEX
  VSB - VISIBILITY




USA.gov is the U.S. government's official web portal to all federal, state and local government web resources and services.